Theta_e
317 317 317 317 317 317 317 317 317 317 317 316 317 317 317 317 318 318 319 319 319 319 320 322 325 326 319 317 323 327 342 336 327 323 322 318 314 312 309 314 319 315 319 319 318 319 318
316 315 316 316 316 316 316 316 316 316 316 316 316 316 316 316 317 318 318 318 318 319 320 323 326 323 321 313 326 323 322 320 322 322 317 318 317 317 313 314 313 318 317 317 318 319 322
314 314 315 315 315 315 315 315 315 315 315 315 315 315 315 315 316 316 317 318 317 318 321 325 326 323 317 314 327 323 323 320 322 317 314 320 320 314 313 310 318 317 311 314 316 317 316
313 314 314 315 315 314 314 314 315 314 314 314 314 314 314 315 315 316 316 316 317 318 322 328 328 322 315 324 322 327 324 320 320 317 316 321 320 315 311 314 314 309 307 303 314 318 317
314 313 314 314 313 313 313 313 313 313 313 313 313 313 314 314 315 315 315 314 317 319 324 329 322 318 314 324 317 322 323 320 318 317 316 323 315 310 311 305 301 303 298 303 311 317 315
313 313 314 313 313 313 312 312 312 313 313 313 313 313 314 314 314 314 313 315 320 319 322 327 325 313 318 316 317 319 323 322 317 314 314 315 310 304 304 300 294 299 300 304 309 314 313
312 313 312 312 312 312 311 312 312 312 312 312 313 313 313 313 313 313 310 309 315 315 312 312 312 312 316 320 321 318 323 320 317 311 304 310 302 299 303 305 306 306 303 303 308 312 307
312 312 313 312 311 311 311 311 311 311 311 311 312 312 313 313 312 312 309 307 310 310 303 313 315 319 320 320 314 317 322 312 311 305 307 304 301 307 311 311 307 304 302 302 306 312 308
312 312 312 311 311 310 310 310 310 310 311 311 312 312 312 311 311 311 308 311 317 312 302 309 312 311 314 314 314 314 316 314 309 306 306 302 307 313 312 307 305 301 299 302 304 308 307
312 312 312 311 310 310 310 310 310 310 311 311 311 311 311 309 308 309 310 316 314 314 297 304 305 310 313 313 308 318 319 315 310 306 307 305 312 312 309 307 304 297 310 309 307 302 296
310 310 310 310 310 309 309 310 310 310 310 311 311 311 310 308 305 306 311 313 313 310 291 308 307 316 311 308 311 312 320 314 307 308 307 306 308 307 307 306 308 304 311 309 308 301 297
310 309 309 309 309 309 309 310 310 310 310 310 310 310 309 311 308 310 312 312 310 297 292 306 309 306 305 307 309 313 314 314 314 310 311 309 315 311 309 310 310 311 307 306 303 298 292
309 308 308 308 308 309 310 310 310 310 309 309 309 308 306 310 308 311 312 307 295 291 305 302 303 305 303 303 305 308 310 305 302 299 301 309 309 310 313 306 309 307 298 292 292 292 293
308 308 308 307 310 309 309 310 310 309 309 308 307 307 309 310 309 311 309 299 291 300 300 306 306 306 302 304 304 306 307 304 308 306 302 300 299 307 311 306 304 303 300 293 288 290 294
308 308 308 309 310 309 309 309 309 309 308 307 306 312 310 312 313 310 302 293 296 303 306 305 305 302 301 305 304 303 304 306 308 308 300 300 303 314 312 312 308 302 297 303 295 295 293
308 308 308 308 309 309 309 309 309 309 308 307 305 307 311 314 313 306 298 295 300 307 307 305 300 304 302 302 301 301 303 308 309 312 310 304 301 307 312 311 310 303 306 296 296 291 290
307 307 308 309 309 309 309 309 308 308 307 306 308 307 311 315 312 302 293 296 302 307 308 304 301 301 303 303 303 301 302 309 311 311 311 305 303 305 311 303 302 302 299 301 297 296 290
307 308 308 309 308 309 308 308 308 307 305 307 310 304 315 312 299 300 295 300 301 304 307 305 305 304 303 305 304 302 303 309 312 312 305 308 303 298 303 310 311 307 303 303 297 295 298
307 307 308 307 308 308 308 308 308 306 305 300 304 310 314 309 293 295 299 300 302 302 303 305 304 306 305 304 302 308 308 309 311 310 305 307 300 294 297 303 307 304 305 301 300 300 295
307 307 308 306 308 308 308 309 308 307 306 303 305 303 306 306 303 299 299 301 302 306 305 307 305 306 303 303 304 304 306 309 310 310 323 314 305 302 295 300 304 303 306 306 301 295 296
307 307 306 306 307 308 309 308 308 307 306 303 309 307 308 298 298 299 300 302 301 301 306 306 304 304 302 299 303 301 306 307 309 313 308 308 300 302 305 306 306 305 307 308 303 303 298
306 306 306 306 306 308 309 308 308 307 305 306 305 302 305 303 308 301 302 299 302 304 304 302 302 305 304 300 302 304 308 308 308 308 304 306 300 301 303 307 306 305 307 308 306 305 303
306 306 306 306 306 307 308 308 308 306 305 306 309 307 304 304 304 302 302 303 303 305 307 308 306 306 304 310 312 310 309 310 309 306 309 305 303 299 297 306 305 299 305 307 307 310 307
306 306 305 306 305 307 307 308 308 307 305 302 307 306 302 298 301 302 304 305 305 307 307 311 311 310 313 315 315 311 306 307 309 309 310 307 307 305 300 303 293 304 310 310 310 317 316
306 306 306 305 305 306 306 306 308 307 306 302 306 305 302 297 302 301 303 304 307 310 308 311 312 313 314 311 306 301 300 301 304 307 305 308 304 299 296 296 302 306 310 309 308 313 319
306 305 306 305 305 306 306 306 306 307 306 304 305 309 303 299 299 303 300 304 302 304 306 309 315 314 311 305 302 295 294 299 298 300 303 303 308 302 297 294 292 303 314 318 316 308 319
306 306 306 305 305 305 307 306 306 306 306 303 304 310 303 299 304 303 298 299 305 303 302 308 309 308 310 301 297 295 295 303 297 298 298 298 299 298 297 295 299 308 310 318 299 306 319
306 306 306 305 305 305 306 306 306 306 306 304 304 309 304 298 300 304 304 301 301 303 300 304 306 306 305 298 297 297 297 300 299 301 303 300 297 295 297 295 294 322 321 314 313 317 327
306 306 306 305 305 305 305 305 306 306 305 305 303 308 310 303 299 305 305 306 304 306 304 304 305 307 312 306 303 303 299 301 301 297 308 300 303 300 300 300 324 328 326 328 329 327 329
Wind_Speed
16 16 16 17 17 17 17 17 17 18 18 19 19 19 20 20 20 20 20 19 18 19 18 15 14 10 2 3 5 5 5 4 3 4 8 10 9 7 6 7 4 3 9 11 6 2 5
15 16 16 17 17 17 18 18 18 18 18 19 19 19 20 20 21 20 20 19 18 18 17 14 12 10 2 5 7 9 7 6 9 9 11 7 6 9 7 8 4 6 8 7 8 8 2
15 15 16 16 16 17 18 19 19 19 19 20 20 20 20 22 22 22 20 20 19 18 16 13 9 6 4 10 11 10 9 8 8 6 7 7 6 8 11 10 8 7 3 9 9 11 4
15 15 16 16 17 17 18 19 19 19 19 20 20 21 21 22 22 23 22 21 21 18 14 10 6 4 7 2 4 11 10 10 5 8 7 7 5 6 4 8 9 5 5 6 6 3 6
14 15 16 16 17 18 18 18 19 19 19 20 21 22 22 22 22 23 24 26 22 15 11 9 4 3 8 2 4 7 8 9 8 6 7 7 3 6 7 4 6 6 8 7 2 10 4
16 15 15 17 18 18 19 19 20 20 20 20 21 21 22 23 22 22 26 26 7 8 5 6 7 5 5 8 7 8 8 9 3 5 6 6 3 2 5 1 7 6 2 6 6 6 5
16 16 16 17 18 19 19 20 21 21 21 21 21 22 23 24 24 20 15 7 2 2 3 8 4 7 5 7 6 6 8 2 7 5 6 8 1 7 13 10 4 7 8 7 3 5 4
15 16 16 17 18 18 19 20 21 21 22 22 22 22 23 24 25 21 4 4 5 5 9 12 16 17 17 6 5 7 7 5 6 7 8 6 9 13 9 2 5 6 7 9 8 3 6
15 15 15 17 18 19 20 20 21 22 22 22 22 22 23 26 27 7 6 9 8 8 4 9 14 11 12 5 8 9 9 8 8 9 10 9 10 11 2 4 6 5 5 9 4 7 9
16 17 16 17 19 19 20 20 22 22 22 22 22 23 22 28 4 7 5 2 7 8 3 8 8 14 13 7 8 18 14 8 6 11 10 8 12 5 3 4 3 6 8 1 6 6 5
16 17 17 18 19 20 20 21 22 22 22 22 23 22 23 9 8 5 7 10 7 3 2 8 10 8 8 10 3 7 13 8 12 12 4 11 5 5 4 7 7 8 5 6 6 6 5
16 17 17 18 19 20 20 20 21 22 22 23 22 21 22 3 4 9 12 11 4 1 7 1 6 8 10 10 14 7 9 6 8 11 10 11 8 3 6 8 5 6 5 6 5 1 4
17 18 19 19 19 20 20 21 22 23 24 24 24 20 11 7 5 10 12 4 2 4 6 5 7 9 10 10 15 11 11 8 7 3 6 9 8 3 5 5 4 2 5 4 6 4 7
17 18 19 19 19 20 21 22 23 25 25 26 27 25 8 8 7 8 3 1 4 9 12 8 6 12 14 11 13 15 11 8 10 8 5 7 7 10 7 6 5 6 9 7 3 2 6
17 18 18 19 19 21 22 23 24 26 27 27 29 2 4 6 11 4 1 3 7 6 2 13 15 12 10 14 8 11 10 12 11 13 8 3 7 9 11 6 6 4 3 9 2 4 5
16 17 18 19 19 20 22 23 25 27 30 26 4 4 7 7 10 3 1 5 9 9 12 10 12 5 2 13 13 12 10 10 12 15 10 10 6 5 8 3 0 2 3 5 5 2 5
15 17 18 18 20 20 22 23 25 27 32 22 3 3 5 10 5 1 5 8 6 15 16 6 10 8 6 13 9 9 14 11 16 15 12 9 6 10 1 3 6 3 4 3 5 5 4
15 16 17 18 20 21 22 23 24 25 32 8 4 3 5 6 3 4 4 3 5 15 17 3 6 6 6 8 7 9 8 2 6 17 7 10 6 4 8 7 11 9 10 7 6 7 3
14 16 17 20 20 21 22 22 23 22 19 7 4 4 2 3 3 6 6 11 16 18 18 2 5 6 7 5 5 9 4 7 14 9 4 3 2 2 11 10 7 4 5 2 1 2 4
14 16 17 19 19 21 22 23 23 23 18 4 4 3 1 2 5 6 5 8 13 15 13 5 10 7 7 4 4 6 10 6 6 6 5 5 3 5 7 2 3 3 6 6 4 2 5
14 15 16 18 19 20 22 23 25 27 26 3 4 4 4 3 5 9 7 10 14 11 5 4 8 7 7 4 8 5 3 6 3 3 4 5 2 5 7 8 9 12 10 11 8 10 6
12 14 16 17 19 20 21 23 26 29 33 3 4 5 6 9 9 8 7 10 12 13 6 6 5 9 6 3 5 6 8 6 4 3 3 3 2 4 5 6 9 15 18 16 11 8 6
11 14 15 16 18 20 20 22 24 26 24 5 5 5 4 8 7 3 4 6 5 8 8 7 12 3 4 13 11 8 5 5 3 3 5 3 3 2 5 7 9 8 8 3 5 13 7
10 12 14 16 17 19 21 21 22 22 18 4 4 6 4 6 9 11 9 10 9 5 5 8 6 8 5 10 9 6 4 7 8 1 4 3 3 2 2 5 4 8 6 3 1 8 14
9 10 13 15 16 18 19 21 21 21 21 4 4 4 4 6 11 15 20 9 8 6 7 6 12 8 6 7 4 1 3 3 4 8 2 2 3 2 2 3 8 11 5 4 5 9 7
9 9 11 14 15 16 18 19 20 20 21 7 6 3 3 5 5 14 15 15 6 4 4 3 6 6 7 2 3 1 3 2 3 4 6 2 4 5 2 2 4 7 1 6 6 4 17
9 10 10 12 13 15 16 18 20 20 20 9 6 7 3 4 3 10 8 8 8 7 5 2 5 3 5 1 2 2 4 4 5 6 6 4 3 8 5 5 8 8 14 2 0 6 13
9 10 10 10 13 13 16 17 19 20 21 12 8 8 2 4 9 7 10 7 8 9 4 7 4 5 2 1 1 3 3 6 7 9 5 9 7 6 2 4 10 6 6 2 6 3 12
8 10 8 9 11 13 14 15 18 19 20 18 4 9 8 4 6 11 13 9 7 3 3 5 3 9 4 4 3 3 3 4 3 4 6 4 8 7 9 8 6 10 8 5 5 1 7
Wind_Direction
40 37 34 32 27 25 19 15 13 10 5 2 358 353 349 346 340 335 331 327 328 320 316 321 319 321 263 259 242 133 144 190 253 241 236 265 295 285 308 325 149 261 207 224 244 256 167
39 35 31 28 23 20 17 12 9 6 2 359 355 350 347 342 336 332 327 322 322 316 314 319 323 324 268 286 120 142 196 171 237 230 278 274 315 330 299 312 7 348 356 346 317 292 63
35 31 28 25 21 19 15 8 6 2 359 356 352 348 343 338 333 329 323 317 315 314 308 309 324 300 278 243 135 162 219 220 236 255 296 305 2 350 332 321 314 283 318 288 247 253 142
31 26 24 21 20 17 12 6 3 360 356 351 348 344 340 334 329 326 321 315 307 302 293 295 313 287 259 209 332 171 209 255 238 271 274 308 347 301 270 292 323 298 259 268 296 203 167
32 24 21 19 15 12 8 3 360 357 354 349 345 341 336 331 328 327 321 310 300 283 263 284 264 224 270 342 253 220 216 241 210 243 269 280 314 236 309 242 313 290 250 240 316 277 283
26 21 19 18 11 9 5 2 358 354 351 348 343 339 333 329 327 327 321 299 286 312 216 238 262 324 261 229 184 211 216 253 273 241 267 241 246 241 303 33 236 275 264 323 145 259 226
22 18 16 14 9 7 3 359 355 352 349 346 342 337 331 327 323 329 341 350 3 24 233 228 176 256 298 221 100 195 195 161 272 264 248 258 158 242 242 241 286 0 341 336 266 158 120
24 18 15 11 7 3 360 356 354 349 346 343 339 335 330 325 319 318 277 271 14 277 301 274 261 252 260 148 195 229 186 186 218 244 239 296 230 250 269 61 24 341 326 304 305 169 117
14 13 11 8 4 1 357 353 351 346 343 339 336 334 331 325 316 295 228 266 311 309 277 277 228 238 238 164 243 216 186 205 241 227 253 218 253 228 335 355 343 310 261 282 298 358 345
16 12 10 7 0 358 354 351 348 343 340 336 333 332 333 329 326 336 267 330 338 334 315 259 203 228 206 177 248 242 188 187 229 239 245 240 253 224 308 279 258 269 269 239 16 11 267
12 10 5 2 358 356 352 349 344 341 338 334 330 330 327 320 304 290 326 334 344 6 315 211 200 161 169 180 257 212 180 187 243 259 226 256 248 256 194 255 229 248 16 6 341 319 354
10 8 6 2 359 354 348 346 342 339 336 330 325 325 332 103 206 254 296 301 350 26 244 240 113 177 184 201 239 236 149 174 233 254 273 251 303 236 193 237 278 338 343 342 305 242 342
9 4 2 1 355 351 349 345 341 338 333 328 320 314 309 300 234 336 326 346 73 228 281 218 155 169 209 186 225 235 174 184 211 210 286 302 242 240 268 244 222 135 10 328 339 12 220
7 4 1 356 351 354 348 344 342 337 333 327 317 309 241 218 266 315 285 33 225 232 254 300 267 184 193 206 210 240 168 185 226 242 215 220 271 219 189 210 196 199 173 163 263 198 245
4 3 0 357 358 351 348 346 342 337 333 329 314 189 232 233 215 258 10 199 203 230 188 297 309 187 193 211 188 218 185 198 201 222 214 257 264 266 186 163 173 270 283 218 201 320 8
4 2 360 355 352 350 348 346 344 340 333 333 311 278 238 195 168 178 171 253 238 273 307 327 308 146 237 201 209 188 196 204 222 212 204 253 323 355 130 114 316 168 246 15 350 304 278
358 359 357 355 351 350 349 347 347 344 336 334 243 269 107 137 140 167 206 231 271 275 286 318 346 342 343 309 235 197 207 210 207 232 206 210 170 280 67 109 219 289 277 254 154 151 191
355 356 356 355 350 349 350 349 350 350 342 357 298 268 201 118 126 212 236 247 262 281 303 308 315 295 302 340 310 204 190 248 270 207 223 196 158 238 235 224 199 205 214 172 125 290 247
354 351 351 354 350 350 350 350 352 354 8 321 297 271 208 147 217 240 254 248 258 268 277 228 275 306 311 346 349 359 54 32 30 52 45 307 96 34 335 342 337 56 316 208 96 82 259
352 350 356 354 351 349 349 350 350 349 350 300 273 250 294 196 259 280 302 287 268 257 261 345 298 309 305 316 310 328 350 29 52 84 59 55 69 138 200 222 239 300 309 302 190 140 251
355 1 356 355 353 350 349 352 350 346 341 236 234 295 15 209 235 234 253 288 302 268 189 284 328 273 302 357 328 280 304 326 4 37 54 83 60 30 330 341 328 313 289 265 257 232 186
357 356 355 356 354 352 352 355 355 352 340 219 321 351 339 293 293 181 235 259 281 309 139 233 264 295 315 299 302 23 7 40 33 44 76 32 321 17 308 306 303 300 301 300 299 279 288
352 352 353 354 353 354 356 357 360 4 350 341 350 335 297 285 309 286 324 309 295 316 308 272 197 277 293 5 347 341 14 18 46 35 27 72 105 91 273 311 308 315 260 311 334 15 319
344 348 351 352 353 355 357 357 360 6 14 297 289 318 288 297 328 322 252 239 265 319 344 4 45 76 0 326 320 278 307 13 331 356 59 78 58 42 251 2 276 250 306 202 82 82 83
333 344 348 350 352 353 356 356 358 360 0 315 298 331 323 308 322 345 345 273 162 69 26 7 72 71 3 355 334 8 357 360 286 308 320 100 85 2 95 261 280 312 355 333 88 29 71
318 332 341 347 350 350 354 356 356 360 360 332 287 337 318 304 355 339 326 357 20 8 142 283 84 71 48 16 297 226 188 251 237 200 222 265 143 133 337 282 267 241 141 336 105 79 56
308 315 328 340 345 347 350 353 355 358 358 342 283 286 286 291 324 350 1 354 2 341 320 344 357 89 89 15 256 273 237 268 258 219 198 205 216 193 209 224 274 292 314 52 58 193 161
296 305 316 330 338 341 347 350 353 355 358 353 279 284 349 311 293 355 353 349 347 21 14 325 340 17 96 174 281 249 239 240 235 246 195 176 173 209 190 236 270 328 20 37 202 254 165
288 302 306 319 327 336 338 342 347 350 356 351 289 339 342 253 270 311 283 282 282 327 340 327 301 23 1 356 14 312 283 323 339 288 284 219 176 190 166 203 116 62 68 4 23 357 332